Time,TemperatureF,DewpointF,PressureIn,WindDirection,WindDirectionDegrees,WindSpeedMPH,WindSpeedGustMPH,Humidity,HourlyPrecipIn,Conditions,Clouds,dailyrainin,SolarRadiationWatts/m^2,SoftwareType,DateUTC
2013-03-14 00:02:00,44.0,32.0,-100.00,WSW,252,4.0,7.0,62,0.00,,,0.00,0.000000,,2013-03-14 07:02:00,
2013-03-14 00:11:00,44.0,32.0,-100.00,WSW,252,4.0,7.0,62,0.00,,,0.00,0.000000,,2013-03-14 07:11:00,
2013-03-14 00:32:00,42.0,31.0,-100.00,WSW,253,4.0,7.0,65,0.00,,,0.00,0.000000,,2013-03-14 07:32:00,
2013-03-14 00:43:00,42.0,31.0,-100.00,WSW,253,4.0,7.0,65,0.00,,,0.00,0.000000,,2013-03-14 07:43:00,
2013-03-14 00:52:00,42.0,31.0,-100.00,WSW,253,4.0,7.0,65,0.00,,,0.00,0.000000,,2013-03-14 07:52:00,
2013-03-14 01:02:00,42.0,31.0,-100.00,WSW,253,4.0,7.0,65,0.00,,,0.00,0.000000,,2013-03-14 08:02:00,
2013-03-14 01:11:00,42.0,31.0,-100.00,WSW,253,4.0,7.0,65,0.00,,,0.00,0.000000,,2013-03-14 08:11:00,
2013-03-14 01:42:00,40.0,28.0,-100.00,WSW,241,4.0,7.0,61,0.00,,,0.00,0.000000,,2013-03-14 08:42:00,
2013-03-14 01:52:00,40.0,28.0,-100.00,WSW,241,4.0,7.0,61,0.00,,,0.00,0.000000,,2013-03-14 08:52:00,
2013-03-14 02:01:00,40.0,28.0,-100.00,WSW,241,4.0,7.0,61,0.00,,,0.00,0.000000,,2013-03-14 09:01:00,
2013-03-14 02:12:00,40.0,28.0,-100.00,WSW,241,4.0,7.0,61,0.00,,,0.00,0.000000,,2013-03-14 09:12:00,
2013-03-14 02:32:00,40.0,30.0,-100.00,South,184,1.0,8.0,66,0.00,,,0.00,0.000000,,2013-03-14 09:32:00,
2013-03-14 02:42:00,40.0,30.0,-100.00,South,184,1.0,8.0,66,0.00,,,0.00,0.000000,,2013-03-14 09:42:00,
2013-03-14 02:52:00,40.0,30.0,-100.00,South,184,1.0,8.0,66,0.00,,,0.00,0.000000,,2013-03-14 09:52:00,
2013-03-14 03:02:00,40.0,30.0,-100.00,South,184,1.0,8.0,66,0.00,,,0.00,0.000000,,2013-03-14 10:02:00,
2013-03-14 03:12:00,40.0,30.0,-100.00,South,184,1.0,8.0,66,0.00,,,0.00,0.000000,,2013-03-14 10:12:00,
2013-03-14 03:32:00,47.0,28.0,-100.00,WSW,237,6.0,10.0,47,0.00,,,0.00,0.000000,,2013-03-14 10:32:00,
2013-03-14 04:33:00,48.0,28.0,-100.00,SSW,210,4.0,10.0,46,-99.99,,,0.00,0.000000,,2013-03-14 11:33:00,
2013-03-14 05:33:00,40.0,27.0,-100.00,SSW,192,4.0,9.0,60,-99.99,,,0.00,0.000000,,2013-03-14 12:33:00,
2013-03-14 05:42:00,40.0,27.0,-100.00,SSW,192,4.0,9.0,60,-99.99,,,0.00,0.000000,,2013-03-14 12:42:00,
2013-03-14 05:52:00,40.0,27.0,-100.00,SSW,192,4.0,9.0,60,-99.99,,,0.00,0.000000,,2013-03-14 12:52:00,
2013-03-14 06:02:00,40.0,27.0,-100.00,SSW,192,4.0,9.0,60,-99.99,,,0.00,0.000000,,2013-03-14 13:02:00,
2013-03-14 06:12:00,40.0,27.0,-100.00,SSW,192,4.0,9.0,60,-99.99,,,0.00,0.000000,,2013-03-14 13:12:00,
2013-03-14 06:32:00,39.0,25.0,-100.00,SSE,164,4.0,7.0,58,0.00,,,0.00,0.000000,,2013-03-14 13:32:00,
2013-03-14 06:43:00,39.0,25.0,-100.00,SSE,164,4.0,7.0,58,0.00,,,0.00,0.000000,,2013-03-14 13:43:00,
2013-03-14 06:52:00,39.0,25.0,-100.00,SSE,164,4.0,7.0,58,0.00,,,0.00,0.000000,,2013-03-14 13:52:00,
2013-03-14 07:02:00,39.0,25.0,-100.00,SSE,164,4.0,7.0,58,0.00,,,0.00,0.000000,,2013-03-14 14:02:00,
2013-03-14 07:12:00,39.0,25.0,-100.00,SSE,164,4.0,7.0,58,0.00,,,0.00,0.000000,,2013-03-14 14:12:00,
2013-03-14 07:42:00,48.0,26.0,-100.00,SW,216,6.0,12.0,42,0.00,,,0.00,0.000000,,2013-03-14 14:42:00,
2013-03-14 07:53:00,48.0,26.0,-100.00,SW,216,6.0,12.0,42,0.00,,,0.00,0.000000,,2013-03-14 14:53:00,
2013-03-14 08:33:00,49.0,27.0,-100.00,SW,216,6.0,15.0,43,-99.99,,,0.00,21.000000,,2013-03-14 15:33:00,
2013-03-14 09:33:00,49.0,28.0,-100.00,SSW,205,6.0,13.0,44,-99.99,,,0.00,75.000000,,2013-03-14 16:33:00,
2013-03-14 10:12:00,49.0,28.0,-100.00,SSW,205,6.0,13.0,44,-99.99,,,0.00,75.000000,,2013-03-14 17:12:00,
2013-03-14 10:33:00,52.0,29.0,-100.00,South,182,5.0,12.0,41,0.00,,,-99.99,185.000000,,2013-03-14 17:33:00,
2013-03-14 11:02:00,52.0,29.0,-100.00,South,182,5.0,12.0,41,0.00,,,-99.99,185.000000,,2013-03-14 18:02:00,
2013-03-14 11:12:00,52.0,29.0,-100.00,South,182,5.0,12.0,41,0.00,,,-99.99,185.000000,,2013-03-14 18:12:00,
2013-03-14 11:33:00,54.0,30.0,-100.00,South,176,9.0,17.0,39,0.00,,,0.00,435.000000,,2013-03-14 18:33:00,
2013-03-14 11:43:00,54.0,30.0,-100.00,South,176,9.0,17.0,39,0.00,,,0.00,435.000000,,2013-03-14 18:43:00,
2013-03-14 11:52:00,54.0,30.0,-100.00,South,176,9.0,17.0,39,0.00,,,0.00,435.000000,,2013-03-14 18:52:00,
2013-03-14 12:02:00,54.0,30.0,-100.00,South,176,9.0,17.0,39,0.00,,,0.00,435.000000,,2013-03-14 19:02:00,
2013-03-14 12:12:00,54.0,30.0,-100.00,South,176,9.0,17.0,39,0.00,,,0.00,435.000000,,2013-03-14 19:12:00,
2013-03-14 13:42:00,63.0,21.0,-100.00,SW,226,10.0,19.0,20,-99.99,,,0.00,678.000000,,2013-03-14 20:42:00,
2013-03-14 13:52:00,63.0,21.0,-100.00,SW,226,10.0,19.0,20,-99.99,,,0.00,678.000000,,2013-03-14 20:52:00,
2013-03-14 14:43:00,65.0,22.0,-100.00,SW,218,7.0,19.0,19,0.00,,,0.00,690.000000,,2013-03-14 21:43:00,
2013-03-14 14:53:00,65.0,22.0,-100.00,SW,218,7.0,19.0,19,0.00,,,0.00,690.000000,,2013-03-14 21:53:00,
2013-03-14 15:03:00,65.0,22.0,-100.00,SW,218,7.0,19.0,19,0.00,,,0.00,690.000000,,2013-03-14 22:03:00,
2013-03-14 15:12:00,65.0,22.0,-100.00,SW,218,7.0,19.0,19,0.00,,,0.00,690.000000,,2013-03-14 22:12:00,
2013-03-14 15:42:00,64.0,20.0,-100.00,SW,225,8.0,18.0,18,0.00,,,0.00,634.000000,,2013-03-14 22:42:00,
2013-03-14 15:52:00,64.0,20.0,-100.00,SW,225,8.0,18.0,18,0.00,,,0.00,634.000000,,2013-03-14 22:52:00,
2013-03-14 16:02:00,64.0,20.0,-100.00,SW,225,8.0,18.0,18,0.00,,,0.00,634.000000,,2013-03-14 23:02:00,
2013-03-14 16:11:00,64.0,20.0,-100.00,SW,225,8.0,18.0,18,0.00,,,0.00,634.000000,,2013-03-14 23:11:00,
2013-03-14 16:33:00,64.0,22.0,-100.00,SW,231,9.0,21.0,20,0.00,,,0.00,602.000000,,2013-03-14 23:33:00,
2013-03-14 16:43:00,64.0,22.0,-100.00,SW,231,9.0,21.0,20,0.00,,,0.00,602.000000,,2013-03-14 23:43:00,
2013-03-14 16:53:00,64.0,22.0,-100.00,SW,231,9.0,21.0,20,0.00,,,0.00,602.000000,,2013-03-14 23:53:00,
2013-03-14 17:02:00,64.0,22.0,-100.00,SW,231,9.0,21.0,20,0.00,,,0.00,602.000000,,2013-03-15 00:02:00,
2013-03-14 17:12:00,64.0,22.0,-100.00,SW,231,9.0,21.0,20,0.00,,,0.00,602.000000,,2013-03-15 00:12:00,
2013-03-14 17:32:00,63.0,18.0,-100.00,WSW,249,7.0,19.0,17,0.00,,,0.00,436.000000,,2013-03-15 00:32:00,
2013-03-14 17:42:00,63.0,18.0,-100.00,WSW,249,7.0,19.0,17,0.00,,,0.00,436.000000,,2013-03-15 00:42:00,
2013-03-14 17:52:00,63.0,18.0,-100.00,WSW,249,7.0,19.0,17,0.00,,,0.00,436.000000,,2013-03-15 00:52:00,
2013-03-14 18:02:00,63.0,18.0,-100.00,WSW,249,7.0,19.0,17,0.00,,,0.00,436.000000,,2013-03-15 01:02:00,
2013-03-14 18:11:00,63.0,18.0,-100.00,WSW,249,7.0,19.0,17,0.00,,,0.00,436.000000,,2013-03-15 01:11:00,
2013-03-14 18:32:00,57.0,16.0,-100.00,SW,230,4.0,15.0,20,0.00,,,-99.99,176.000000,,2013-03-15 01:32:00,
2013-03-14 18:43:00,57.0,16.0,-100.00,SW,230,4.0,15.0,20,0.00,,,-99.99,176.000000,,2013-03-15 01:43:00,
2013-03-14 18:52:00,57.0,16.0,-100.00,SW,230,4.0,15.0,20,0.00,,,-99.99,176.000000,,2013-03-15 01:52:00,
2013-03-14 19:02:00,57.0,16.0,-100.00,SW,230,4.0,15.0,20,0.00,,,-99.99,176.000000,,2013-03-15 02:02:00,
2013-03-14 19:11:00,57.0,16.0,-100.00,SW,230,4.0,15.0,20,0.00,,,-99.99,176.000000,,2013-03-15 02:11:00,
2013-03-14 19:32:00,53.0,20.0,-100.00,SW,223,4.0,22.0,27,0.00,,,0.00,60.000000,,2013-03-15 02:32:00,
2013-03-14 19:42:00,53.0,20.0,-100.00,SW,223,4.0,22.0,27,0.00,,,0.00,60.000000,,2013-03-15 02:42:00,
2013-03-14 19:52:00,53.0,20.0,-100.00,SW,223,4.0,22.0,27,0.00,,,0.00,60.000000,,2013-03-15 02:52:00,
2013-03-14 20:02:00,53.0,20.0,-100.00,SW,223,4.0,22.0,27,0.00,,,0.00,60.000000,,2013-03-15 03:02:00,
2013-03-14 20:11:00,53.0,20.0,-100.00,SW,223,4.0,22.0,27,0.00,,,0.00,60.000000,,2013-03-15 03:11:00,
2013-03-14 20:33:00,47.0,21.0,-100.00,SSW,198,3.0,6.0,36,0.00,,,0.00,0.000000,,2013-03-15 03:33:00,
2013-03-14 20:43:00,47.0,21.0,-100.00,SSW,198,3.0,6.0,36,0.00,,,0.00,0.000000,,2013-03-15 03:43:00,
2013-03-14 20:53:00,47.0,21.0,-100.00,SSW,198,3.0,6.0,36,0.00,,,0.00,0.000000,,2013-03-15 03:53:00,
2013-03-14 21:03:00,47.0,21.0,-100.00,SSW,198,3.0,6.0,36,0.00,,,0.00,0.000000,,2013-03-15 04:03:00,
2013-03-14 21:12:00,47.0,21.0,-100.00,SSW,198,3.0,6.0,36,0.00,,,0.00,0.000000,,2013-03-15 04:12:00,
2013-03-14 21:33:00,43.0,22.0,-100.00,SW,229,2.0,6.0,43,0.00,,,0.00,0.000000,,2013-03-15 04:33:00,
2013-03-14 22:02:00,43.0,22.0,-100.00,SW,229,2.0,6.0,43,0.00,,,0.00,0.000000,,2013-03-15 05:02:00,
2013-03-14 22:12:00,43.0,22.0,-100.00,SW,229,2.0,6.0,43,0.00,,,0.00,0.000000,,2013-03-15 05:12:00,
2013-03-14 22:32:00,45.0,20.0,-100.00,West,276,7.0,14.0,37,0.00,,,0.00,0.000000,,2013-03-15 05:32:00,
2013-03-14 22:42:00,45.0,20.0,-100.00,West,276,7.0,14.0,37,0.00,,,0.00,0.000000,,2013-03-15 05:42:00,
2013-03-14 22:52:00,45.0,20.0,-100.00,West,276,7.0,14.0,37,0.00,,,0.00,0.000000,,2013-03-15 05:52:00,
2013-03-14 23:02:00,45.0,20.0,-100.00,West,276,7.0,14.0,37,0.00,,,0.00,0.000000,,2013-03-15 06:02:00,
2013-03-14 23:12:00,45.0,20.0,-100.00,West,276,7.0,14.0,37,0.00,,,0.00,0.000000,,2013-03-15 06:12:00,
2013-03-14 23:32:00,47.0,28.0,-100.00,SW,227,8.0,16.0,48,0.00,,,0.00,0.000000,,2013-03-15 06:32:00,
2013-03-14 23:42:00,47.0,28.0,-100.00,SW,227,8.0,16.0,48,0.00,,,0.00,0.000000,,2013-03-15 06:42:00,
2013-03-14 23:53:00,47.0,28.0,-100.00,SW,227,8.0,16.0,48,0.00,,,0.00,0.000000,,2013-03-15 06:53:00,